Regional Weather Roundup
Issued by NWS

Home | Current Version | Previous Version | Text Only | Print | Product List | Glossary On
Versions: 1 2 3 4 5 6 7 8 9 10 11 12 13 14 15 16 17 18 19 20 21 22 23 24 25 26 27 28 29 30 31 32 33 34 35 36 37 38 39 40 41 42 43 44 45 46 47 48 49 50
000
ASUS43 KOAX 292202
RWRNE
WEATHER ROUNDUP FOR NEBRASKA
NATIONAL WEATHER SERVICE OMAHA NE
500 PM CDT MON JUN 29 2015

NOTES: SATELLITE DATA IS BEING USED TO AUGMENT CLOUD COVER ABOVE
       12000 FEET.
       "FAIR" INDICATES FEW OR NO CLOUDS BELOW 12,000 FEET WITH NO
       SIGNIFICANT WEATHER AND/OR OBSTRUCTIONS TO VISIBILITY.

  * THESE STATIONS DO NOT REPORT WEATHER SUCH AS RAIN...SNOW OR FOG.

NEZ001>004-019>022-054>056-292300-
NEBRASKA PANHANDLE

CITY           SKY/WX    TMP DP  RH WIND       PRES   REMARKS
SCOTTSBLUFF    SUNNY     93  51  23 VRB3      30.10F HX  90
ALLIANCE       SUNNY     89  57  33 N7        30.10F
CHADRON        SUNNY     89  58  34 CALM      30.06F
KIMBALL          N/A    N/A N/A N/A MISG        N/A
SIDNEY         SUNNY     88  53  30 VRB3      30.15F
$$

NEZ057>060-069>072-079>082-292300-
SOUTHWEST NEBRASKA

CITY           SKY/WX    TMP DP  RH WIND       PRES   REMARKS
NORTH PLATTE   MOSUNNY   91  58  32 SW6       30.02F HX  90
IMPERIAL       SUNNY     91  54  28 N6        30.07F
LEXINGTON      SUNNY     93  53  25 NE6       30.01S HX  91
MCCOOK         SUNNY     94  54  25 MISG      30.02F HX  92
$$

NEZ005>010-023>029-035>040-094-292300-
NORTH CENTRAL NEBRASKA

CITY           SKY/WX    TMP DP  RH WIND       PRES   REMARKS
VALENTINE      SUNNY     89  60  37 VRB5      30.02F
AINSWORTH      SUNNY     88  59  38 N7        30.02F
BROKEN BOW     SUNNY     89  59  36 N6        30.01F
ORD            SUNNY     91  56  30 N13       29.96F
$$

NEZ041-046>049-061>064-073>077-083>087-292300-
SOUTH CENTRAL NEBRASKA

CITY           SKY/WX    TMP DP  RH WIND       PRES   REMARKS
GRAND ISLAND   SUNNY     89  57  33 VRB5      29.98F
HASTINGS       SUNNY     87  58  37 NW8       29.98F
KEARNEY *      SUNNY     88  61  40 NE5       29.99F
$$

NEZ011>018-030>034-042>045-292300-
NORTHEAST NEBRASKA

CITY           SKY/WX    TMP DP  RH WIND       PRES   REMARKS
NORFOLK        SUNNY     86  60  41 N7        29.94F
COLUMBUS *     SUNNY    N/A N/A N/A MISG        N/A
FREMONT        SUNNY     86  56  36 NW7       29.93F
TEKAMAH        MOSUNNY   86  62  44 N8        29.91F
$$

NEZ050>053-065>068-078-088>093-292300-
SOUTHEAST NEBRASKA

CITY           SKY/WX    TMP DP  RH WIND       PRES   REMARKS
LINCOLN        SUNNY     88  59  37 NW7       29.94F HAZE
OMAHA EPPLEY   CLOUDY    86  62  44 NW9       29.90F
FALLS CITY     MOSUNNY   85  63  47 NW8       29.91F
NEBRASKA CITY  MOSUNNY   85  53  32 N10       29.92F
PLATTSMOUTH    MOSUNNY   85  56  37 NW9       29.92S
$$

NEZ044-045-051>053-067-292300-
OMAHA AREA

CITY           SKY/WX    TMP DP  RH WIND       PRES   REMARKS
OMAHA EPPLEY   CLOUDY    86  62  44 NW9       29.90F
FREMONT        SUNNY     86  56  36 NW7       29.93F
MILLARD        MOSUNNY   85  61  44 NW3       29.91S
OFFUTT AFB     SUNNY     85  62  46 N7        29.90F
PLATTSMOUTH    MOSUNNY   85  56  37 NW9       29.92S
WAHOO          FAIR      87  56  34 NW6       29.93F
$$


USA.gov is the U.S. government's official web portal to all federal, state and local government web resources and services.